OneWeb SL0205

operational
NORAD ID: 48226 Int'l Des: 2021-031 Owner: ONEWEBN Country: UK Constellation: oneweb
LEOCIRCULARPOLARONEWEB_TYPE

About OneWeb SL0205

Description loading...

Live Position

Loading 3D Globe...

Upcoming Passes

Altitude History

Altitude vs Time

uPlot chart will show altitude changes over time

Two-Line Element Set

1 48226U 21031S 26034.32269807 .00000086 00000-0 19689-3 0 9991
2 48226 87.9030 316.3813 0001847 82.1489 277.9851 13.14503161230681
Epoch: Feb 3, 2026 • Age: 11 hours

Current Status

Altitude 1215.3 km
Velocity 7.25 km/s
Sub-Earth Point 62.96°N, 98.95°W
Launch Date Apr 25, 2021
Age 4.7 years
Type internet

Technical Details

Classification Payload
Mass 148.00 kg
Dry Mass 140.00 kg
Total Mass 148.00 kg
Length 1.30 m
Diameter 1.00 m
Span 5.00 m
Shape Trapezoid+2 pan
Manufacturer ONEWUS
Bus Type ARROW
Phase Status In Orbit
Owner/State ONEWEBN/UK

Large Constellations

Loading constellations...